This demonstration page uses our WeatherBlox Daily Observations layout. Learn more.

Left ArrowRight Arrow

34.16533, -84.80231

Hourly Observations for April 9, 2016

Temp ( °F °C ) Dew Point ( °F °C ) Humidity (%) Winds ( mph kmh ) Pressure ( in mb ) Visibility ( mi km ) Precip ( " mm )
12:53 am 00:53 Clear 48 8.9 32 0 54 54 Calm 30.03 1017 10 16 0.00 0.00
1:53 am 01:53 Clear 44 6.7 33 0.6 65 65 Calm 30.03 1017 10 16 0.00 0.00
2:53 am 02:53 Clear 43 6.1 33 0.6 68 68 Calm 30.02 1017 10 16 0.00 0.00
3:53 am 03:53 Clear 41 5 34 1.1 76 76 Calm 30.01 1016 10 16 0.00 0.00
4:53 am 04:53 Clear 40 4.4 34 1.1 79 79 Calm 30.01 1016 10 16 0.00 0.00
5:53 am 05:53 Clear 39 3.9 34 1.1 82 82 Calm 30.00 1016 10 16 0.00 0.00
6:53 am 06:53 Clear 38 3.3 33 0.6 83 83 Calm 30.02 1017 10 16 0.00 0.00
7:53 am 07:53 Sunny 41 5 36 2.2 82 82 Calm 30.05 1018 10 16 0.00 0.00
8:53 am 08:53 Sunny 48 8.9 32 0 54 54 NNW 5 7 30.09 1019 10 16 0.00 0.00
9:53 am 09:53 Sunny 50 10 25 -3.9 38 38 VRB 6 9 30.11 1020 10 16 0.00 0.00
10:53 am 10:53 Sunny 52 11.1 21 -6.1 30 30 VRB 7 11 30.14 1021 10 16 0.00 0.00
11:53 am 11:53 Sunny 54 12.2 19 -7.2 25 25 VRB 3 6 30.16 1021 10 16 0.00 0.00
12:53 pm 12:53 Sunny 56 13.3 15 -9.4 20 20 NNW 12 19 30.16 1021 10 16 0.00 0.00
1:53 pm 13:53 Sunny 56 13.3 12 -11.1 17 17 NNW 12 19 30.14 1021 10 16 0.00 0.00
2:53 pm 14:53 Sunny 58 14.4 15 -9.4 18 18 Calm 30.13 1020 10 16 0.00 0.00
3:53 pm 15:53 Sunny 59 15 17 -8.3 19 19 VRB 7 11 30.13 1020 10 16 0.00 0.00
4:53 pm 16:53 Sunny 60 15.6 15 -9.4 17 17 VRB 7 11 30.13 1020 10 16 0.00 0.00
5:53 pm 17:53 Sunny 60 15.6 15 -9.4 17 17 VRB 7 11 30.14 1021 10 16 0.00 0.00
6:53 pm 18:53 Sunny 57 13.9 13 -10.6 17 17 VRB 3 6 30.15 1021 10 16 0.00 0.00
7:53 pm 19:53 Sunny 53 11.7 15 -9.4 22 22 Calm 30.16 1021 10 16 0.00 0.00
8:53 pm 20:53 Clear 43 6.1 26 -3.3 51 51 Calm 30.17 1022 10 16 0.00 0.00
9:53 pm 21:53 Clear 43 6.1 25 -3.9 49 49 Calm 30.19 1022 10 16 0.00 0.00
10:53 pm 22:53 Clear 39 3.9 27 -2.8 62 62 Calm 30.22 1023 10 16 0.00 0.00
11:53 pm 23:53 Clear 37 2.8 27 -2.8 67 67 Calm 30.22 1024 10 16 0.00 0.00

Powered by AerisWeather